Starlink 31451

operational
NORAD ID: 59366 Int'l Des: 2024-060 Owner: SPXS Country: US Constellation: starlink
LEOCIRCULAR

About Starlink 31451

Description loading...

Live Position

Loading 3D Globe...

Upcoming Passes

Altitude History

Altitude vs Time

uPlot chart will show altitude changes over time

Two-Line Element Set

1 59366U 24060U 25258.04148241 .00000484 00000-0 27092-4 0 9997
2 59366 43.0002 171.4837 0001087 268.2284 91.8443 15.27581751 83203
Epoch: Sep 15, 2025 • Age: 42 hours

Current Status

Altitude 482.3 km
Velocity 7.63 km/s
Sub-Earth Point 15.34°N, 109.47°W
Launch Date Mar 31, 2024
Age 1.4 years
Type internet

Technical Details

Classification Payload
Mass 730.00 kg
Dry Mass 700.00 kg
Total Mass 730.00 kg
Length 0.30 m
Diameter 4.10 m
Span 29.00 m
Shape Box + pan
Manufacturer SPXS
Bus Type Starlink V2M
Phase Status In Orbit
Owner/State SPXS/US

Large Constellations

Loading constellations...